Time,TemperatureF,DewpointF,PressureIn,WindDirection,WindDirectionDegrees,WindSpeedMPH,WindSpeedGustMPH,Humidity,HourlyPrecipIn,Conditions,Clouds,dailyrainin,SoftwareType,DateUTC
2013-01-17 00:02:00,63.8,20.7,30.06,East,81,4.0,6.0,19,0.00,,,0.00,Wunderground v.1.15,2013-01-17 08:02:00,
2013-01-17 00:07:00,63.8,21.9,30.06,NNE,25,4.0,6.0,20,0.00,,,0.00,Wunderground v.1.15,2013-01-17 08:07:00,
2013-01-17 00:12:00,63.8,20.7,30.06,NE,44,3.0,7.0,19,0.00,,,0.00,Wunderground v.1.15,2013-01-17 08:12:00,
2013-01-17 00:17:00,63.5,21.7,30.06,ENE,78,3.0,7.0,20,0.00,,,0.00,Wunderground v.1.15,2013-01-17 08:17:00,
2013-01-17 00:22:00,63.2,21.4,30.06,NNE,15,1.0,4.0,20,0.00,,,0.00,Wunderground v.1.15,2013-01-17 08:22:00,
2013-01-17 00:28:00,62.7,21.0,30.06,East,84,1.0,4.0,20,0.00,,,0.00,Wunderground v.1.15,2013-01-17 08:28:00,
2013-01-17 00:33:00,62.9,21.2,30.06,NE,53,2.0,7.0,20,0.00,,,0.00,Wunderground v.1.15,2013-01-17 08:33:00,
2013-01-17 00:38:00,63.1,21.3,30.06,ENE,63,4.0,7.0,20,0.00,,,0.00,Wunderground v.1.15,2013-01-17 08:38:00,
2013-01-17 00:43:00,63.1,21.3,30.06,ENE,65,4.0,6.0,20,0.00,,,0.00,Wunderground v.1.15,2013-01-17 08:43:00,
2013-01-17 00:48:00,63.3,21.5,30.06,ESE,102,3.0,6.0,20,0.00,,,0.00,Wunderground v.1.15,2013-01-17 08:48:00,
2013-01-17 00:53:00,63.3,21.5,30.06,ENE,69,3.0,6.0,20,0.00,,,0.00,Wunderground v.1.15,2013-01-17 08:53:00,
2013-01-17 00:58:00,63.0,21.2,30.06,ENE,69,1.0,6.0,20,0.00,,,0.00,Wunderground v.1.15,2013-01-17 08:58:00,
2013-01-17 01:04:00,62.6,20.9,30.06,ENE,71,0.0,1.0,20,0.00,,,0.00,Wunderground v.1.15,2013-01-17 09:04:00,
2013-01-17 01:09:00,62.0,21.6,30.06,ESE,105,1.0,1.0,21,0.00,,,0.00,Wunderground v.1.15,2013-01-17 09:09:00,
2013-01-17 01:14:00,61.8,21.4,30.06,SE,128,2.0,6.0,21,0.00,,,0.00,Wunderground v.1.15,2013-01-17 09:14:00,
2013-01-17 01:19:00,61.7,20.2,30.06,East,98,2.0,2.0,20,0.00,,,0.00,Wunderground v.1.15,2013-01-17 09:19:00,
2013-01-17 01:24:00,61.5,21.2,30.06,East,90,0.0,2.0,21,0.00,,,0.00,Wunderground v.1.15,2013-01-17 09:24:00,
2013-01-17 01:29:00,61.3,22.1,30.06,East,90,0.0,1.0,22,0.00,,,0.00,Wunderground v.1.15,2013-01-17 09:29:00,
2013-01-17 01:35:00,60.9,22.8,30.06,East,95,0.0,1.0,23,0.00,,,0.00,Wunderground v.1.15,2013-01-17 09:35:00,
2013-01-17 01:40:00,60.7,21.6,30.06,ESE,110,0.0,5.0,22,0.00,,,0.00,Wunderground v.1.15,2013-01-17 09:40:00,
2013-01-17 01:45:00,60.5,21.4,30.06,East,87,2.0,6.0,22,0.00,,,0.00,Wunderground v.1.15,2013-01-17 09:45:00,
2013-01-17 01:50:00,60.5,22.5,30.06,East,79,1.0,4.0,23,0.00,,,0.00,Wunderground v.1.15,2013-01-17 09:50:00,
2013-01-17 01:55:00,60.8,21.7,30.06,ESE,119,2.0,12.0,22,0.00,,,0.00,Wunderground v.1.15,2013-01-17 09:55:00,
2013-01-17 02:00:00,61.4,21.1,30.06,ESE,107,4.0,5.0,21,0.00,,,0.00,Wunderground v.1.15,2013-01-17 10:00:00,
2013-01-17 02:05:00,61.6,21.2,30.06,ESE,109,3.0,8.0,21,0.00,,,0.00,Wunderground v.1.15,2013-01-17 10:05:00,
2013-01-17 02:10:00,61.7,21.3,30.06,East,92,3.0,5.0,21,0.00,,,0.00,Wunderground v.1.15,2013-01-17 10:10:00,
2013-01-17 02:15:00,61.7,21.3,30.06,East,80,2.0,5.0,21,0.00,,,0.00,Wunderground v.1.15,2013-01-17 10:15:00,
2013-01-17 02:20:00,62.0,21.6,30.06,East,89,3.0,3.0,21,0.00,,,0.00,Wunderground v.1.15,2013-01-17 10:20:00,
2013-01-17 02:25:00,61.8,21.4,30.06,ENE,72,3.0,4.0,21,0.00,,,0.00,Wunderground v.1.15,2013-01-17 10:25:00,
2013-01-17 02:30:00,61.8,21.4,30.06,East,80,2.0,2.0,21,0.00,,,0.00,Wunderground v.1.15,2013-01-17 10:30:00,
2013-01-17 02:36:00,61.5,21.2,30.06,ENE,74,1.0,4.0,21,0.00,,,0.00,Wunderground v.1.15,2013-01-17 10:36:00,
2013-01-17 02:41:00,61.3,21.0,30.06,NE,40,1.0,4.0,21,0.00,,,0.00,Wunderground v.1.15,2013-01-17 10:41:00,
2013-01-17 02:46:00,61.1,21.9,30.06,NE,41,2.0,4.0,22,0.00,,,0.00,Wunderground v.1.15,2013-01-17 10:46:00,
2013-01-17 02:52:00,61.1,23.0,30.06,East,94,2.0,4.0,23,0.00,,,0.00,Wunderground v.1.15,2013-01-17 10:52:00,
2013-01-17 02:57:00,60.7,21.6,30.06,East,86,1.0,4.0,22,0.00,,,0.00,Wunderground v.1.15,2013-01-17 10:57:00,
2013-01-17 03:02:00,60.3,21.2,30.06,East,79,1.0,6.0,22,0.00,,,0.00,Wunderground v.1.15,2013-01-17 11:02:00,
2013-01-17 03:08:00,60.2,21.2,30.07,ENE,71,2.0,6.0,22,0.00,,,0.00,Wunderground v.1.15,2013-01-17 11:08:00,
2013-01-17 03:13:00,60.2,22.2,30.06,East,82,2.0,2.0,23,0.00,,,0.00,Wunderground v.1.15,2013-01-17 11:13:00,
2013-01-17 03:18:00,60.4,21.3,30.06,ENE,69,1.0,4.0,22,0.00,,,0.00,Wunderground v.1.15,2013-01-17 11:18:00,
2013-01-17 03:23:00,60.4,22.4,30.07,ENE,66,2.0,2.0,23,0.00,,,0.00,Wunderground v.1.15,2013-01-17 11:23:00,
2013-01-17 03:28:00,60.5,20.3,30.06,ENE,64,3.0,5.0,21,0.00,,,0.00,Wunderground v.1.15,2013-01-17 11:28:00,
2013-01-17 03:33:00,60.7,21.6,30.06,NNE,22,3.0,4.0,22,0.00,,,0.00,Wunderground v.1.15,2013-01-17 11:33:00,
2013-01-17 03:38:00,60.9,20.7,30.06,ESE,106,3.0,11.0,21,0.00,,,0.00,Wunderground v.1.15,2013-01-17 11:38:00,
2013-01-17 03:43:00,61.2,22.0,30.06,East,90,3.0,5.0,22,0.00,,,0.00,Wunderground v.1.15,2013-01-17 11:43:00,
2013-01-17 03:48:00,61.0,20.7,30.06,ENE,76,2.0,6.0,21,0.00,,,0.00,Wunderground v.1.15,2013-01-17 11:48:00,
2013-01-17 03:53:00,61.2,20.9,30.07,East,88,3.0,6.0,21,0.00,,,0.00,Wunderground v.1.15,2013-01-17 11:53:00,
2013-01-17 03:58:00,61.4,21.1,30.07,ENE,62,4.0,6.0,21,0.00,,,0.00,Wunderground v.1.15,2013-01-17 11:58:00,
2013-01-17 04:04:00,61.4,21.1,30.06,ENE,57,2.0,4.0,21,0.00,,,0.00,Wunderground v.1.15,2013-01-17 12:04:00,
2013-01-17 04:09:00,61.1,20.8,30.07,East,89,2.0,7.0,21,0.00,,,0.00,Wunderground v.1.15,2013-01-17 12:09:00,
2013-01-17 04:14:00,61.6,20.1,30.06,East,91,3.0,7.0,20,0.00,,,0.00,Wunderground v.1.15,2013-01-17 12:14:00,
2013-01-17 04:19:00,61.4,22.2,30.06,ENE,69,3.0,3.0,22,0.00,,,0.00,Wunderground v.1.15,2013-01-17 12:19:00,
2013-01-17 04:24:00,60.7,21.6,30.06,East,86,2.0,6.0,22,0.00,,,0.00,Wunderground v.1.15,2013-01-17 12:24:00,
2013-01-17 04:29:00,60.7,22.6,30.06,ENE,75,2.0,2.0,23,0.00,,,0.00,Wunderground v.1.15,2013-01-17 12:29:00,
2013-01-17 04:34:00,60.9,20.7,30.06,ENE,72,4.0,11.0,21,0.00,,,0.00,Wunderground v.1.15,2013-01-17 12:34:00,
2013-01-17 04:39:00,61.4,19.9,30.06,ESE,115,5.0,6.0,20,0.00,,,0.00,Wunderground v.1.15,2013-01-17 12:39:00,
2013-01-17 04:44:00,62.2,20.6,30.05,ENE,75,6.0,8.0,20,0.00,,,0.00,Wunderground v.1.15,2013-01-17 12:44:00,
2013-01-17 04:49:00,62.2,20.6,30.05,ENE,76,5.0,5.0,20,0.00,,,0.00,Wunderground v.1.15,2013-01-17 12:49:00,
2013-01-17 04:55:00,61.7,22.4,30.05,East,84,3.0,6.0,22,0.00,,,0.00,Wunderground v.1.15,2013-01-17 12:55:00,
2013-01-17 05:00:00,61.6,21.2,30.04,NE,40,4.0,4.0,21,0.00,,,0.00,Wunderground v.1.15,2013-01-17 13:00:00,
2013-01-17 05:06:00,61.5,20.0,30.05,East,87,4.0,9.0,20,0.00,,,0.00,Wunderground v.1.15,2013-01-17 13:06:00,
2013-01-17 05:11:00,61.8,20.3,30.04,ENE,62,5.0,8.0,20,0.00,,,0.00,Wunderground v.1.15,2013-01-17 13:11:00,
2013-01-17 05:16:00,62.0,20.4,30.04,East,99,6.0,8.0,20,0.00,,,0.00,Wunderground v.1.15,2013-01-17 13:16:00,
2013-01-17 05:21:00,62.1,20.5,30.04,East,84,5.0,7.0,20,0.00,,,0.00,Wunderground v.1.15,2013-01-17 13:21:00,
2013-01-17 05:26:00,62.1,20.5,30.04,ESE,113,5.0,13.0,20,0.00,,,0.00,Wunderground v.1.15,2013-01-17 13:26:00,
2013-01-17 05:31:00,62.3,20.7,30.04,ENE,62,6.0,11.0,20,0.00,,,0.00,Wunderground v.1.15,2013-01-17 13:31:00,
2013-01-17 05:36:00,62.4,20.8,30.04,NE,51,6.0,11.0,20,0.00,,,0.00,Wunderground v.1.15,2013-01-17 13:36:00,
2013-01-17 05:41:00,62.0,20.4,30.04,ENE,72,5.0,9.0,20,0.00,,,0.00,Wunderground v.1.15,2013-01-17 13:41:00,
2013-01-17 05:47:00,61.8,20.3,30.04,ENE,59,4.0,9.0,20,0.00,,,0.00,Wunderground v.1.15,2013-01-17 13:47:00,
2013-01-17 05:52:00,61.5,20.0,30.04,NE,41,5.0,10.0,20,0.00,,,0.00,Wunderground v.1.15,2013-01-17 13:52:00,
2013-01-17 05:57:00,61.7,20.2,30.04,East,83,5.0,10.0,20,0.00,,,0.00,Wunderground v.1.15,2013-01-17 13:57:00,
2013-01-17 06:02:00,61.9,19.1,30.04,East,101,7.0,10.0,19,0.00,,,0.00,Wunderground v.1.15,2013-01-17 14:02:00,
2013-01-17 06:07:00,62.4,19.5,30.04,ENE,64,8.0,12.0,19,0.00,,,0.00,Wunderground v.1.15,2013-01-17 14:07:00,
2013-01-17 06:12:00,62.3,19.5,30.04,East,82,7.0,12.0,19,0.00,,,0.00,Wunderground v.1.15,2013-01-17 14:12:00,
2013-01-17 06:17:00,62.2,20.6,30.04,ENE,78,5.0,12.0,20,0.00,,,0.00,Wunderground v.1.15,2013-01-17 14:17:00,
2013-01-17 06:22:00,61.8,20.3,30.05,East,86,5.0,12.0,20,0.00,,,0.00,Wunderground v.1.15,2013-01-17 14:22:00,
2013-01-17 06:27:00,61.9,20.3,30.05,East,94,7.0,12.0,20,0.00,,,0.00,Wunderground v.1.15,2013-01-17 14:27:00,
2013-01-17 06:32:00,62.0,20.4,30.05,East,90,7.0,8.0,20,0.00,,,0.00,Wunderground v.1.15,2013-01-17 14:32:00,
2013-01-17 06:37:00,61.7,19.0,30.05,ENE,61,6.0,9.0,19,0.00,,,0.00,Wunderground v.1.15,2013-01-17 14:37:00,
2013-01-17 06:42:00,61.7,20.2,30.05,ENE,69,6.0,13.0,20,0.00,,,0.00,Wunderground v.1.15,2013-01-17 14:42:00,
2013-01-17 06:47:00,62.0,19.2,30.06,East,92,7.0,13.0,19,0.00,,,0.00,Wunderground v.1.15,2013-01-17 14:47:00,
2013-01-17 06:52:00,62.0,19.2,30.06,East,86,7.0,7.0,19,0.00,,,0.00,Wunderground v.1.15,2013-01-17 14:52:00,
2013-01-17 06:57:00,62.0,19.2,30.06,NE,55,6.0,11.0,19,0.00,,,0.00,Wunderground v.1.15,2013-01-17 14:57:00,
2013-01-17 07:02:00,61.9,19.1,30.06,ENE,78,7.0,11.0,19,0.00,,,0.00,Wunderground v.1.15,2013-01-17 15:02:00,
2013-01-17 07:07:00,62.0,19.2,30.06,ESE,116,8.0,11.0,19,0.00,,,0.00,Wunderground v.1.15,2013-01-17 15:07:00,
2013-01-17 07:12:00,62.1,19.3,30.06,ENE,74,8.0,12.0,19,0.00,,,0.00,Wunderground v.1.15,2013-01-17 15:12:00,
2013-01-17 07:17:00,62.2,19.4,30.06,ENE,64,7.0,17.0,19,0.00,,,0.00,Wunderground v.1.15,2013-01-17 15:17:00,
2013-01-17 07:22:00,62.3,19.5,30.06,ESE,103,8.0,18.0,19,0.00,,,0.00,Wunderground v.1.15,2013-01-17 15:22:00,
2013-01-17 07:28:00,62.1,19.3,30.07,ESE,117,7.0,18.0,19,0.00,,,0.00,Wunderground v.1.15,2013-01-17 15:28:00,
2013-01-17 07:33:00,62.0,19.2,30.07,ENE,78,7.0,15.0,19,0.00,,,0.00,Wunderground v.1.15,2013-01-17 15:33:00,
2013-01-17 07:38:00,61.9,20.3,30.07,ENE,63,7.0,15.0,20,0.00,,,0.00,Wunderground v.1.15,2013-01-17 15:38:00,
2013-01-17 07:43:00,62.1,19.3,30.07,ENE,70,8.0,14.0,19,0.00,,,0.00,Wunderground v.1.15,2013-01-17 15:43:00,
2013-01-17 07:49:00,62.2,20.6,30.07,ENE,61,8.0,8.0,20,0.00,,,0.00,Wunderground v.1.15,2013-01-17 15:49:00,
2013-01-17 07:54:00,62.2,19.4,30.07,ESE,110,8.0,13.0,19,0.00,,,0.00,Wunderground v.1.15,2013-01-17 15:54:00,
2013-01-17 07:59:00,62.5,20.8,30.07,East,96,7.0,7.0,20,0.00,,,0.00,Wunderground v.1.15,2013-01-17 15:59:00,
2013-01-17 08:04:00,62.7,19.8,30.08,East,79,8.0,12.0,19,0.00,,,0.00,Wunderground v.1.15,2013-01-17 16:04:00,
2013-01-17 08:10:00,63.2,20.2,30.08,East,96,8.0,13.0,19,0.00,,,0.00,Wunderground v.1.15,2013-01-17 16:10:00,
2013-01-17 08:15:00,63.5,20.5,30.08,SE,125,7.0,13.0,19,0.00,,,0.00,Wunderground v.1.15,2013-01-17 16:15:00,
2013-01-17 08:20:00,63.8,19.4,30.08,NE,51,7.0,9.0,18,0.00,,,0.00,Wunderground v.1.15,2013-01-17 16:20:00,
2013-01-17 08:25:00,64.2,21.0,30.09,East,99,8.0,14.0,19,0.00,,,0.00,Wunderground v.1.15,2013-01-17 16:25:00,
2013-01-17 08:30:00,64.5,21.3,30.09,East,89,7.0,11.0,19,0.00,,,0.00,Wunderground v.1.15,2013-01-17 16:30:00,
2013-01-17 08:35:00,64.9,20.3,30.09,East,96,6.0,11.0,18,0.00,,,0.00,Wunderground v.1.15,2013-01-17 16:35:00,
2013-01-17 08:40:00,65.3,20.7,30.09,ESE,103,6.0,12.0,18,0.00,,,0.00,Wunderground v.1.15,2013-01-17 16:40:00,
2013-01-17 08:45:00,65.6,20.9,30.10,ENE,65,7.0,12.0,18,0.00,,,0.00,Wunderground v.1.15,2013-01-17 16:45:00,
2013-01-17 08:50:00,65.9,21.2,30.09,East,83,7.0,7.0,18,0.00,,,0.00,Wunderground v.1.15,2013-01-17 16:50:00,
2013-01-17 08:55:00,66.2,21.4,30.09,NNE,31,6.0,9.0,18,0.00,,,0.00,Wunderground v.1.15,2013-01-17 16:55:00,
2013-01-17 09:00:00,66.4,21.6,30.09,ENE,58,5.0,6.0,18,0.00,,,0.00,Wunderground v.1.15,2013-01-17 17:00:00,
2013-01-17 09:05:00,66.8,20.5,30.09,NE,44,7.0,10.0,17,0.00,,,0.00,Wunderground v.1.15,2013-01-17 17:05:00,
2013-01-17 09:10:00,67.2,20.9,30.09,ENE,69,7.0,7.0,17,0.00,,,0.00,Wunderground v.1.15,2013-01-17 17:10:00,
2013-01-17 09:15:00,67.5,22.5,30.09,East,79,7.0,8.0,18,0.00,,,0.00,Wunderground v.1.15,2013-01-17 17:15:00,
2013-01-17 09:20:00,68.0,21.5,30.09,ESE,109,6.0,7.0,17,0.00,,,0.00,Wunderground v.1.15,2013-01-17 17:20:00,
2013-01-17 09:25:00,68.3,20.3,30.10,ESE,115,6.0,14.0,16,0.00,,,0.00,Wunderground v.1.15,2013-01-17 17:25:00,
2013-01-17 09:31:00,68.5,20.5,30.09,East,87,7.0,7.0,16,0.00,,,0.00,Wunderground v.1.15,2013-01-17 17:31:00,
2013-01-17 09:36:00,68.8,20.7,30.10,East,87,7.0,8.0,16,0.00,,,0.00,Wunderground v.1.15,2013-01-17 17:36:00,
2013-01-17 09:41:00,69.1,21.0,30.10,East,79,6.0,10.0,16,0.00,,,0.00,Wunderground v.1.15,2013-01-17 17:41:00,
2013-01-17 09:46:00,69.5,21.3,30.10,East,85,6.0,10.0,16,0.00,,,0.00,Wunderground v.1.15,2013-01-17 17:46:00,
2013-01-17 09:51:00,69.9,20.1,30.09,East,94,6.0,11.0,15,0.00,,,0.00,Wunderground v.1.15,2013-01-17 17:51:00,
2013-01-17 09:56:00,70.2,20.3,30.09,ENE,63,6.0,11.0,15,0.00,,,0.00,Wunderground v.1.15,2013-01-17 17:56:00,
2013-01-17 10:01:00,70.4,20.5,30.09,ENE,74,7.0,17.0,15,0.00,,,0.00,Wunderground v.1.15,2013-01-17 18:01:00,
2013-01-17 10:06:00,70.4,20.5,30.09,ENE,67,8.0,17.0,15,0.00,,,0.00,Wunderground v.1.15,2013-01-17 18:06:00,
2013-01-17 10:11:00,70.5,20.6,30.09,East,82,9.0,13.0,15,0.00,,,0.00,Wunderground v.1.15,2013-01-17 18:11:00,
2013-01-17 10:16:00,70.6,20.7,30.08,East,95,8.0,13.0,15,0.00,,,0.00,Wunderground v.1.15,2013-01-17 18:16:00,
2013-01-17 10:22:00,70.8,20.8,30.08,ENE,63,9.0,10.0,15,0.00,,,0.00,Wunderground v.1.15,2013-01-17 18:22:00,
2013-01-17 10:27:00,71.2,19.5,30.08,ENE,69,9.0,19.0,14,0.00,,,0.00,Wunderground v.1.15,2013-01-17 18:27:00,
2013-01-17 10:32:00,71.3,19.6,30.07,NE,43,9.0,18.0,14,0.00,,,0.00,Wunderground v.1.15,2013-01-17 18:32:00,
2013-01-17 10:37:00,71.5,19.8,30.07,East,94,9.0,18.0,14,0.00,,,0.00,Wunderground v.1.15,2013-01-17 18:37:00,
2013-01-17 10:42:00,71.7,21.5,30.07,East,86,8.0,10.0,15,0.00,,,0.00,Wunderground v.1.15,2013-01-17 18:42:00,
2013-01-17 10:47:00,72.0,20.1,30.07,ENE,70,8.0,14.0,14,0.00,,,0.00,Wunderground v.1.15,2013-01-17 18:47:00,
2013-01-17 10:52:00,71.9,18.3,30.07,ENE,68,10.0,15.0,13,0.00,,,0.00,Wunderground v.1.15,2013-01-17 18:52:00,
2013-01-17 10:57:00,72.1,18.5,30.06,ENE,65,10.0,15.0,13,0.00,,,0.00,Wunderground v.1.15,2013-01-17 18:57:00,
2013-01-17 11:02:00,72.5,20.5,30.06,NE,48,8.0,12.0,14,0.00,,,0.00,Wunderground v.1.15,2013-01-17 19:02:00,
2013-01-17 11:07:00,72.8,19.0,30.06,ENE,59,8.0,13.0,13,0.00,,,0.00,Wunderground v.1.15,2013-01-17 19:07:00,
2013-01-17 11:12:00,73.0,19.2,30.06,East,98,9.0,13.0,13,0.00,,,0.00,Wunderground v.1.15,2013-01-17 19:12:00,
2013-01-17 11:18:00,73.1,19.3,30.05,East,81,8.0,13.0,13,0.00,,,0.00,Wunderground v.1.15,2013-01-17 19:18:00,
2013-01-17 11:23:00,73.3,19.4,30.05,NE,52,8.0,12.0,13,0.00,,,0.00,Wunderground v.1.15,2013-01-17 19:23:00,
2013-01-17 11:28:00,73.4,19.5,30.05,East,82,8.0,13.0,13,0.00,,,0.00,Wunderground v.1.15,2013-01-17 19:28:00,
2013-01-17 11:33:00,73.6,21.4,30.04,ESE,105,9.0,10.0,14,0.00,,,0.00,Wunderground v.1.15,2013-01-17 19:33:00,
2013-01-17 11:38:00,74.0,21.7,30.04,East,94,7.0,12.0,14,0.00,,,0.00,Wunderground v.1.15,2013-01-17 19:38:00,
2013-01-17 11:43:00,74.1,20.1,30.04,ENE,72,8.0,10.0,13,0.00,,,0.00,Wunderground v.1.15,2013-01-17 19:43:00,
2013-01-17 11:49:00,74.0,20.0,30.03,East,98,11.0,11.0,13,0.00,,,0.00,Wunderground v.1.15,2013-01-17 19:49:00,
2013-01-17 11:54:00,74.0,20.0,30.03,East,91,11.0,14.0,13,0.00,,,0.00,Wunderground v.1.15,2013-01-17 19:54:00,
2013-01-17 11:59:00,74.2,21.9,30.02,East,92,10.0,13.0,14,0.00,,,0.00,Wunderground v.1.15,2013-01-17 19:59:00,
2013-01-17 12:04:00,74.3,20.2,30.02,NE,49,9.0,13.0,13,0.00,,,0.00,Wunderground v.1.15,2013-01-17 20:04:00,
2013-01-17 12:09:00,74.3,18.4,30.02,East,84,9.0,9.0,12,0.00,,,0.00,Wunderground v.1.15,2013-01-17 20:09:00,
2013-01-17 12:15:00,74.2,18.3,30.02,NE,49,10.0,13.0,12,0.00,,,0.00,Wunderground v.1.15,2013-01-17 20:15:00,
2013-01-17 12:20:00,74.2,18.3,30.02,East,82,10.0,18.0,12,0.00,,,0.00,Wunderground v.1.15,2013-01-17 20:20:00,
2013-01-17 12:25:00,74.1,20.1,30.01,ENE,78,11.0,18.0,13,0.00,,,0.00,Wunderground v.1.15,2013-01-17 20:25:00,
2013-01-17 12:30:00,74.2,18.3,30.01,East,86,10.0,11.0,12,0.00,,,0.00,Wunderground v.1.15,2013-01-17 20:30:00,
2013-01-17 12:35:00,74.4,18.4,30.01,ENE,59,9.0,19.0,12,0.00,,,0.00,Wunderground v.1.15,2013-01-17 20:35:00,
2013-01-17 12:40:00,74.4,18.4,30.00,ENE,60,9.0,9.0,12,0.00,,,0.00,Wunderground v.1.15,2013-01-17 20:40:00,
2013-01-17 12:46:00,74.8,18.7,30.00,ENE,71,8.0,15.0,12,0.00,,,0.00,Wunderground v.1.15,2013-01-17 20:46:00,
2013-01-17 12:51:00,74.9,18.8,30.00,ENE,68,8.0,13.0,12,0.00,,,0.00,Wunderground v.1.15,2013-01-17 20:51:00,
2013-01-17 12:57:00,75.2,19.1,29.99,ESE,102,6.0,15.0,12,0.00,,,0.00,Wunderground v.1.15,2013-01-17 20:57:00,
2013-01-17 13:02:00,75.3,19.1,29.99,East,98,8.0,14.0,12,0.00,,,0.00,Wunderground v.1.15,2013-01-17 21:02:00,
2013-01-17 13:07:00,75.3,17.1,29.99,ENE,76,9.0,14.0,11,0.00,,,0.00,Wunderground v.1.15,2013-01-17 21:07:00,
2013-01-17 13:12:00,75.1,17.0,29.99,ENE,63,9.0,14.0,11,0.00,,,0.00,Wunderground v.1.15,2013-01-17 21:12:00,
2013-01-17 13:17:00,75.0,18.9,29.98,ENE,75,10.0,18.0,12,0.00,,,0.00,Wunderground v.1.15,2013-01-17 21:17:00,
2013-01-17 13:22:00,75.3,17.1,29.98,ENE,67,10.0,13.0,11,0.00,,,0.00,Wunderground v.1.15,2013-01-17 21:22:00,
2013-01-17 13:27:00,75.1,17.0,29.98,NE,52,11.0,21.0,11,0.00,,,0.00,Wunderground v.1.15,2013-01-17 21:27:00,
2013-01-17 13:32:00,75.2,19.1,29.98,East,84,11.0,12.0,12,0.00,,,0.00,Wunderground v.1.15,2013-01-17 21:32:00,
2013-01-17 13:37:00,75.4,17.2,29.98,ESE,115,9.0,13.0,11,0.00,,,0.00,Wunderground v.1.15,2013-01-17 21:37:00,
2013-01-17 13:43:00,75.3,17.1,29.98,NE,48,9.0,12.0,11,0.00,,,0.00,Wunderground v.1.15,2013-01-17 21:43:00,
2013-01-17 13:48:00,75.1,17.0,29.98,East,90,11.0,12.0,11,0.00,,,0.00,Wunderground v.1.15,2013-01-17 21:48:00,
2013-01-17 13:53:00,74.9,16.8,29.97,NE,41,12.0,13.0,11,0.00,,,0.00,Wunderground v.1.15,2013-01-17 21:53:00,
2013-01-17 13:58:00,75.1,19.0,29.98,ENE,64,11.0,14.0,12,0.00,,,0.00,Wunderground v.1.15,2013-01-17 21:58:00,
2013-01-17 14:03:00,75.3,17.1,29.98,ENE,78,9.0,12.0,11,0.00,,,0.00,Wunderground v.1.15,2013-01-17 22:03:00,
2013-01-17 14:08:00,75.1,19.0,29.98,East,80,10.0,17.0,12,0.00,,,0.00,Wunderground v.1.15,2013-01-17 22:08:00,
2013-01-17 14:13:00,74.8,18.7,29.97,ESE,111,11.0,14.0,12,0.00,,,0.00,Wunderground v.1.15,2013-01-17 22:13:00,
2013-01-17 14:18:00,74.9,16.8,29.97,ENE,76,11.0,19.0,11,0.00,,,0.00,Wunderground v.1.15,2013-01-17 22:18:00,
2013-01-17 14:23:00,74.9,18.8,29.97,NE,49,11.0,20.0,12,0.00,,,0.00,Wunderground v.1.15,2013-01-17 22:23:00,
2013-01-17 14:29:00,74.9,16.8,29.97,East,90,10.0,11.0,11,0.00,,,0.00,Wunderground v.1.15,2013-01-17 22:29:00,
2013-01-17 14:35:00,74.9,16.8,29.98,East,83,12.0,16.0,11,0.00,,,0.00,Wunderground v.1.15,2013-01-17 22:35:00,
2013-01-17 14:40:00,74.9,16.8,29.98,East,101,12.0,12.0,11,0.00,,,0.00,Wunderground v.1.15,2013-01-17 22:40:00,
2013-01-17 14:45:00,74.9,18.8,29.98,ENE,66,11.0,13.0,12,0.00,,,0.00,Wunderground v.1.15,2013-01-17 22:45:00,
2013-01-17 14:50:00,75.1,17.0,29.98,ENE,78,10.0,18.0,11,0.00,,,0.00,Wunderground v.1.15,2013-01-17 22:50:00,
2013-01-17 14:55:00,75.2,17.0,29.98,East,84,10.0,18.0,11,0.00,,,0.00,Wunderground v.1.15,2013-01-17 22:55:00,
2013-01-17 15:00:00,75.4,19.2,29.98,East,86,8.0,15.0,12,0.00,,,0.00,Wunderground v.1.15,2013-01-17 23:00:00,
2013-01-17 15:05:00,75.2,17.0,29.98,NE,48,8.0,17.0,11,0.00,,,0.00,Wunderground v.1.15,2013-01-17 23:05:00,
2013-01-17 15:10:00,75.0,18.9,29.97,ENE,58,10.0,12.0,12,0.00,,,0.00,Wunderground v.1.15,2013-01-17 23:10:00,
2013-01-17 15:15:00,74.9,16.8,29.98,NE,49,11.0,14.0,11,0.00,,,0.00,Wunderground v.1.15,2013-01-17 23:15:00,
2013-01-17 15:20:00,74.7,16.6,29.98,ENE,60,11.0,12.0,11,0.00,,,0.00,Wunderground v.1.15,2013-01-17 23:20:00,
2013-01-17 15:26:00,74.6,16.6,29.97,East,87,10.0,15.0,11,0.00,,,0.00,Wunderground v.1.15,2013-01-17 23:26:00,
2013-01-17 15:31:00,74.6,16.6,29.98,ENE,64,10.0,11.0,11,0.00,,,0.00,Wunderground v.1.15,2013-01-17 23:31:00,
2013-01-17 15:37:00,74.5,16.5,29.98,East,90,10.0,14.0,11,0.00,,,0.00,Wunderground v.1.15,2013-01-17 23:37:00,
2013-01-17 15:42:00,74.4,18.4,29.98,East,98,10.0,13.0,12,0.00,,,0.00,Wunderground v.1.15,2013-01-17 23:42:00,
2013-01-17 15:47:00,74.4,18.4,29.98,ENE,59,9.0,13.0,12,0.00,,,0.00,Wunderground v.1.15,2013-01-17 23:47:00,
2013-01-17 15:52:00,74.4,18.4,29.98,ENE,64,8.0,9.0,12,0.00,,,0.00,Wunderground v.1.15,2013-01-17 23:52:00,
2013-01-17 15:57:00,74.3,18.4,29.98,NNE,28,7.0,15.0,12,0.00,,,0.00,Wunderground v.1.15,2013-01-17 23:57:00,
2013-01-17 16:02:00,74.1,16.2,29.98,East,82,9.0,19.0,11,0.00,,,0.00,Wunderground v.1.15,2013-01-18 00:02:00,
2013-01-17 16:08:00,73.9,18.0,29.98,ENE,57,8.0,19.0,12,0.00,,,0.00,Wunderground v.1.15,2013-01-18 00:08:00,
2013-01-17 16:13:00,73.7,17.9,29.99,ENE,72,7.0,12.0,12,0.00,,,0.00,Wunderground v.1.15,2013-01-18 00:13:00,
2013-01-17 16:18:00,73.5,15.7,29.99,ENE,65,8.0,15.0,11,0.00,,,0.00,Wunderground v.1.15,2013-01-18 00:18:00,
2013-01-17 16:23:00,73.2,17.5,29.99,NE,55,7.0,8.0,12,0.00,,,0.00,Wunderground v.1.15,2013-01-18 00:23:00,
2013-01-17 16:28:00,72.9,17.3,29.99,East,84,6.0,10.0,12,0.00,,,0.00,Wunderground v.1.15,2013-01-18 00:28:00,
2013-01-17 16:33:00,72.7,17.1,29.99,ENE,65,6.0,13.0,12,0.00,,,0.00,Wunderground v.1.15,2013-01-18 00:33:00,
2013-01-17 16:38:00,72.4,16.9,29.99,ENE,59,6.0,13.0,12,0.00,,,0.00,Wunderground v.1.15,2013-01-18 00:38:00,
2013-01-17 16:43:00,72.1,16.6,29.99,East,81,6.0,7.0,12,0.00,,,0.00,Wunderground v.1.15,2013-01-18 00:43:00,
2013-01-17 16:48:00,71.8,16.4,29.99,East,82,6.0,7.0,12,0.00,,,0.00,Wunderground v.1.15,2013-01-18 00:48:00,
2013-01-17 16:53:00,71.5,16.2,29.99,East,101,5.0,11.0,12,0.00,,,0.00,Wunderground v.1.15,2013-01-18 00:53:00,
2013-01-17 16:58:00,71.0,17.6,29.99,East,92,5.0,13.0,13,0.00,,,0.00,Wunderground v.1.15,2013-01-18 00:58:00,
2013-01-17 17:04:00,70.5,15.4,29.99,East,82,5.0,6.0,12,0.00,,,0.00,Wunderground v.1.15,2013-01-18 01:04:00,
2013-01-17 17:10:00,70.1,16.9,29.99,ESE,102,5.0,8.0,13,0.00,,,0.00,Wunderground v.1.15,2013-01-18 01:10:00,
2013-01-17 17:15:00,70.0,15.0,30.00,ENE,61,6.0,11.0,12,0.00,,,0.00,Wunderground v.1.15,2013-01-18 01:15:00,
2013-01-17 17:20:00,69.8,14.8,30.00,East,95,5.0,5.0,12,0.00,,,0.00,Wunderground v.1.15,2013-01-18 01:20:00,
2013-01-17 17:25:00,69.5,14.6,30.00,NE,49,4.0,7.0,12,0.00,,,0.00,Wunderground v.1.15,2013-01-18 01:25:00,
2013-01-17 17:30:00,69.3,14.4,30.00,East,99,5.0,5.0,12,0.00,,,0.00,Wunderground v.1.15,2013-01-18 01:30:00,
2013-01-17 17:35:00,69.1,16.1,30.00,East,88,6.0,8.0,13,0.00,,,0.00,Wunderground v.1.15,2013-01-18 01:35:00,
2013-01-17 17:40:00,69.0,14.2,30.00,East,101,6.0,8.0,12,0.00,,,0.00,Wunderground v.1.15,2013-01-18 01:40:00,
2013-01-17 17:46:00,68.8,14.1,30.00,ENE,75,6.0,8.0,12,0.00,,,0.00,Wunderground v.1.15,2013-01-18 01:46:00,
2013-01-17 17:51:00,68.5,15.7,30.01,East,98,5.0,6.0,13,0.00,,,0.00,Wunderground v.1.15,2013-01-18 01:51:00,
2013-01-17 17:56:00,68.3,15.5,30.01,East,81,5.0,6.0,13,0.00,,,0.00,Wunderground v.1.15,2013-01-18 01:56:00,
2013-01-17 18:01:00,68.2,15.4,30.01,NE,43,6.0,6.0,13,0.00,,,0.00,Wunderground v.1.15,2013-01-18 02:01:00,
2013-01-17 18:06:00,68.1,15.3,30.01,East,79,6.0,6.0,13,0.00,,,0.00,Wunderground v.1.15,2013-01-18 02:06:00,
2013-01-17 18:11:00,67.8,15.1,30.01,East,99,5.0,5.0,13,0.00,,,0.00,Wunderground v.1.15,2013-01-18 02:11:00,
2013-01-17 18:16:00,67.6,14.9,30.02,ENE,59,4.0,7.0,13,0.00,,,0.00,Wunderground v.1.15,2013-01-18 02:16:00,
2013-01-17 18:22:00,67.5,14.9,30.02,East,83,5.0,11.0,13,0.00,,,0.00,Wunderground v.1.15,2013-01-18 02:22:00,
2013-01-17 18:28:00,67.4,14.8,30.02,East,81,6.0,11.0,13,0.00,,,0.00,Wunderground v.1.15,2013-01-18 02:28:00,
2013-01-17 18:33:00,67.2,14.6,30.02,ENE,60,6.0,8.0,13,0.00,,,0.00,Wunderground v.1.15,2013-01-18 02:33:00,
2013-01-17 18:38:00,67.3,14.7,30.02,East,80,6.0,12.0,13,0.00,,,0.00,Wunderground v.1.15,2013-01-18 02:38:00,
2013-01-17 18:43:00,67.0,14.5,30.02,East,101,5.0,6.0,13,0.00,,,0.00,Wunderground v.1.15,2013-01-18 02:43:00,
2013-01-17 18:48:00,66.8,14.3,30.02,East,101,4.0,8.0,13,0.00,,,0.00,Wunderground v.1.15,2013-01-18 02:48:00,
2013-01-17 18:54:00,66.5,15.8,30.02,ENE,68,3.0,7.0,14,0.00,,,0.00,Wunderground v.1.15,2013-01-18 02:54:00,
2013-01-17 18:59:00,66.1,17.0,30.02,ENE,65,3.0,4.0,15,0.00,,,0.00,Wunderground v.1.15,2013-01-18 02:59:00,
2013-01-17 19:04:00,65.8,15.2,30.02,ENE,67,3.0,6.0,14,0.00,,,0.00,Wunderground v.1.15,2013-01-18 03:04:00,
2013-01-17 19:10:00,65.5,15.0,30.02,East,82,3.0,8.0,14,0.00,,,0.00,Wunderground v.1.15,2013-01-18 03:10:00,
2013-01-17 19:15:00,65.7,16.7,30.02,ENE,69,4.0,8.0,15,0.00,,,0.00,Wunderground v.1.15,2013-01-18 03:15:00,
2013-01-17 19:20:00,65.7,15.1,30.03,ENE,63,4.0,9.0,14,0.00,,,0.00,Wunderground v.1.15,2013-01-18 03:20:00,
2013-01-17 19:25:00,65.7,15.1,30.03,East,92,4.0,9.0,14,0.00,,,0.00,Wunderground v.1.15,2013-01-18 03:25:00,
2013-01-17 19:30:00,65.6,16.6,30.03,ENE,76,3.0,4.0,15,0.00,,,0.00,Wunderground v.1.15,2013-01-18 03:30:00,
2013-01-17 19:35:00,65.2,16.3,30.03,East,80,3.0,6.0,15,0.00,,,0.00,Wunderground v.1.15,2013-01-18 03:35:00,
2013-01-17 19:41:00,64.7,17.4,30.03,ENE,58,2.0,2.0,16,0.00,,,0.00,Wunderground v.1.15,2013-01-18 03:41:00,
2013-01-17 19:46:00,64.5,15.8,30.03,East,86,2.0,4.0,15,0.00,,,0.00,Wunderground v.1.15,2013-01-18 03:46:00,
2013-01-17 19:52:00,64.5,17.3,30.03,ENE,57,2.0,3.0,16,0.00,,,0.00,Wunderground v.1.15,2013-01-18 03:52:00,
2013-01-17 19:57:00,64.3,18.5,30.04,ENE,78,2.0,6.0,17,0.00,,,0.00,Wunderground v.1.15,2013-01-18 03:57:00,
2013-01-17 20:02:00,64.1,16.9,30.03,East,101,3.0,4.0,16,0.00,,,0.00,Wunderground v.1.15,2013-01-18 04:02:00,
2013-01-17 20:07:00,64.3,17.1,30.04,ENE,78,3.0,5.0,16,0.00,,,0.00,Wunderground v.1.15,2013-01-18 04:07:00,
2013-01-17 20:13:00,64.5,17.3,30.03,NE,56,3.0,4.0,16,0.00,,,0.00,Wunderground v.1.15,2013-01-18 04:13:00,
2013-01-17 20:18:00,64.5,17.3,30.03,NE,53,3.0,6.0,16,0.00,,,0.00,Wunderground v.1.15,2013-01-18 04:18:00,
2013-01-17 20:23:00,64.7,15.9,30.03,East,88,3.0,4.0,15,0.00,,,0.00,Wunderground v.1.15,2013-01-18 04:23:00,
2013-01-17 20:28:00,64.8,16.0,30.04,East,97,3.0,5.0,15,0.00,,,0.00,Wunderground v.1.15,2013-01-18 04:28:00,
2013-01-17 20:34:00,65.0,16.2,30.04,East,91,4.0,5.0,15,0.00,,,0.00,Wunderground v.1.15,2013-01-18 04:34:00,
2013-01-17 20:40:00,65.0,16.2,30.04,East,88,3.0,4.0,15,0.00,,,0.00,Wunderground v.1.15,2013-01-18 04:40:00,
2013-01-17 20:45:00,64.9,16.1,30.04,East,84,3.0,6.0,15,0.00,,,0.00,Wunderground v.1.15,2013-01-18 04:45:00,
2013-01-17 20:50:00,64.8,16.0,30.03,ENE,64,2.0,4.0,15,0.00,,,0.00,Wunderground v.1.15,2013-01-18 04:50:00,
2013-01-17 20:55:00,64.5,17.3,30.04,ENE,74,2.0,4.0,16,0.00,,,0.00,Wunderground v.1.15,2013-01-18 04:55:00,
2013-01-17 21:02:00,64.0,16.8,30.04,ENE,72,2.0,2.0,16,0.00,,,0.00,Wunderground v.1.15,2013-01-18 05:02:00,
2013-01-17 21:03:00,64.0,16.8,30.04,ENE,73,2.0,2.0,16,0.00,,,0.00,Wunderground v.1.15,2013-01-18 05:03:00,
2013-01-17 21:04:00,63.9,16.8,30.04,East,84,2.0,4.0,16,0.00,,,0.00,Wunderground v.1.15,2013-01-18 05:04:00,
2013-01-17 21:06:00,63.8,16.7,30.04,ENE,67,2.0,4.0,16,0.00,,,0.00,Wunderground v.1.15,2013-01-18 05:06:00,
2013-01-17 21:11:00,63.6,16.5,30.04,ESE,106,2.0,5.0,16,0.00,,,0.00,Wunderground v.1.15,2013-01-18 05:11:00,
2013-01-17 21:17:00,63.4,17.8,30.04,East,79,2.0,5.0,17,0.00,,,0.00,Wunderground v.1.15,2013-01-18 05:17:00,
2013-01-17 21:22:00,63.1,17.5,30.04,East,80,1.0,2.0,17,0.00,,,0.00,Wunderground v.1.15,2013-01-18 05:22:00,
2013-01-17 21:27:00,62.8,17.3,30.04,ENE,78,0.0,2.0,17,0.00,,,0.00,Wunderground v.1.15,2013-01-18 05:27:00,
2013-01-17 21:32:00,62.3,18.2,30.04,East,79,0.0,1.0,18,0.00,,,0.00,Wunderground v.1.15,2013-01-18 05:32:00,
2013-01-17 21:37:00,61.6,18.9,30.04,East,79,0.0,1.0,19,0.00,,,0.00,Wunderground v.1.15,2013-01-18 05:37:00,
2013-01-17 21:42:00,60.9,18.3,30.04,East,79,0.0,1.0,19,0.00,,,0.00,Wunderground v.1.15,2013-01-18 05:42:00,
2013-01-17 21:47:00,60.3,19.0,30.04,East,79,0.0,1.0,20,0.00,,,0.00,Wunderground v.1.15,2013-01-18 05:47:00,
2013-01-17 21:52:00,59.5,18.3,30.04,East,79,0.0,1.0,20,0.00,,,0.00,Wunderground v.1.15,2013-01-18 05:52:00,
2013-01-17 21:58:00,59.0,19.1,30.04,East,79,0.0,1.0,21,0.00,,,0.00,Wunderground v.1.15,2013-01-18 05:58:00,
2013-01-17 22:03:00,58.5,19.7,30.04,East,79,0.0,1.0,22,0.00,,,0.00,Wunderground v.1.15,2013-01-18 06:03:00,
2013-01-17 22:08:00,58.1,20.4,30.04,East,79,0.0,1.0,23,0.00,,,0.00,Wunderground v.1.15,2013-01-18 06:08:00,
2013-01-17 22:13:00,57.7,19.1,30.04,East,79,0.0,1.0,22,0.00,,,0.00,Wunderground v.1.15,2013-01-18 06:13:00,
2013-01-17 22:18:00,57.4,21.8,30.03,East,79,0.0,1.0,25,0.00,,,0.00,Wunderground v.1.15,2013-01-18 06:18:00,
2013-01-17 22:23:00,57.1,21.6,30.03,East,79,0.0,1.0,25,0.00,,,0.00,Wunderground v.1.15,2013-01-18 06:23:00,
2013-01-17 22:28:00,56.8,20.3,30.03,ENE,78,0.0,1.0,24,0.00,,,0.00,Wunderground v.1.15,2013-01-18 06:28:00,
2013-01-17 22:33:00,56.8,20.3,30.03,ENE,78,0.0,2.0,24,0.00,,,0.00,Wunderground v.1.15,2013-01-18 06:33:00,
2013-01-17 22:38:00,56.9,21.4,30.03,ENE,78,0.0,2.0,25,0.00,,,0.00,Wunderground v.1.15,2013-01-18 06:38:00,
2013-01-17 22:43:00,57.2,20.7,30.04,ENE,76,0.0,4.0,24,0.00,,,0.00,Wunderground v.1.15,2013-01-18 06:43:00,
2013-01-17 22:49:00,57.3,18.7,30.04,ENE,76,0.0,1.0,22,0.00,,,0.00,Wunderground v.1.15,2013-01-18 06:49:00,
2013-01-17 22:54:00,57.5,18.9,30.04,ENE,76,0.0,1.0,22,0.00,,,0.00,Wunderground v.1.15,2013-01-18 06:54:00,
2013-01-17 23:00:00,57.7,18.0,30.04,ESE,117,0.0,1.0,21,0.00,,,0.00,Wunderground v.1.15,2013-01-18 07:00:00,
2013-01-17 23:05:00,58.2,19.5,30.04,East,99,1.0,4.0,22,0.00,,,0.00,Wunderground v.1.15,2013-01-18 07:05:00,
2013-01-17 23:11:00,58.9,17.8,30.04,East,100,1.0,1.0,20,0.00,,,0.00,Wunderground v.1.15,2013-01-18 07:11:00,
2013-01-17 23:16:00,59.0,20.2,30.04,ESE,102,0.0,1.0,22,0.00,,,0.00,Wunderground v.1.15,2013-01-18 07:16:00,
2013-01-17 23:21:00,58.6,20.9,30.04,East,95,0.0,1.0,23,0.00,,,0.00,Wunderground v.1.15,2013-01-18 07:21:00,
2013-01-17 23:26:00,58.3,20.6,30.05,East,96,0.0,1.0,23,0.00,,,0.00,Wunderground v.1.15,2013-01-18 07:26:00,
2013-01-17 23:31:00,57.9,20.3,30.05,East,96,0.0,1.0,23,0.00,,,0.00,Wunderground v.1.15,2013-01-18 07:31:00,
2013-01-17 23:37:00,57.5,19.9,30.05,East,96,0.0,1.0,23,0.00,,,0.00,Wunderground v.1.15,2013-01-18 07:37:00,
2013-01-17 23:42:00,57.5,18.9,30.05,East,92,1.0,1.0,22,0.00,,,0.00,Wunderground v.1.15,2013-01-18 07:42:00,
2013-01-17 23:47:00,57.4,19.9,30.05,East,86,1.0,1.0,23,0.00,,,0.00,Wunderground v.1.15,2013-01-18 07:47:00,
2013-01-17 23:52:00,57.3,19.8,30.04,ENE,76,1.0,4.0,23,0.00,,,0.00,Wunderground v.1.15,2013-01-18 07:52:00,
2013-01-17 23:57:00,57.5,17.8,30.04,East,82,2.0,6.0,21,0.00,,,0.00,Wunderground v.1.15,2013-01-18 07:57:00,